Location: Bo?a Wola
(50.4192°N, 19.7966°E)
Time: 20:08:03
(UTC+00:00)

Cosmos 1455 Rocket - Pass Details

Date: 27 September 2024
Orbit: 601 x 623 km, 82.5° (Epoch: 13 October)

Event Time Altitude Azimuth Distance (km) Brightness Sun altitude
Exits shadow 23:42:00 10° 5° (N) 1,981 6.3 -39.5°
Drops below altitude 10° 23:42:00 10° 5° (N) 1,983 6.3 -39.5°
Sets 23:44:16 0° 9° (N) 2,897 7.3 -39.3°
